Regional Weather Roundup
Issued by NWS

Home | Current Version | Previous Version | Graphics & Text | Print | Product List | Glossary On
Versions: 1 2 3 4 5 6 7 8 9 10 11 12 13 14 15 16 17 18 19 20 21 22 23 24 25 26 27 28 29 30 31 32 33 34 35 36 37 38 39 40 41 42 43 44 45 46 47 48 49 50
000
ASUS43 KMKX 231659
RWRWI

WISCONSIN REGIONAL WEATHER ROUNDUP
NATIONAL WEATHER SERVICE MILWAUKEE/SULLIVAN WI
1100 AM CST FRI FEB 23 2018

NOTE: "FAIR" INDICATES FEW OR NO CLOUDS BELOW 12,000 FEET WITH NO
SIGNIFICANT WEATHER AND/OR OBSTRUCTIONS TO VISIBILITY.

WIZ001-002-006>008-014>016-023>028-231800-
NORTHWEST WISCONSIN

CITY           SKY/WX    TMP DP  RH WIND       PRES   REMARKS
SUPERIOR ARPT  CLOUDY    29  24  80 W9        30.06R WCI  21
ASHLAND        CLOUDY    29  24  82 W14       30.03  WCI  18
HAYWARD        CLOUDY    28  23  81 W8        30.04  WCI  20
SIREN          CLOUDY    28  23  81 W12       30.09R WCI  18
CUMBERLAND     CLOUDY    28  23  80 W15       30.07R WCI  17
RICE LAKE      CLOUDY    29  26  88 W13       30.09R WCI  18
CHETEK         CLOUDY    29  26  88 W9        30.08R WCI  20
LADYSMITH      CLOUDY    30  27  89 W9        30.06R WCI  22
EAU CLAIRE     NOT AVBL
MENOMONIE      CLOUDY    30  26  84 W13       30.12R WCI  20
NEW RICHMOND   CLOUDY    28  23  82 W9        30.11R WCI  19
OSCEOLA        CLOUDY    29  23  77 W10       30.14S WCI  20
$$

WIZ003>005-009-010-017-018-231800-
NORTH CENTRAL WISCONSIN

CITY           SKY/WX    TMP DP  RH WIND       PRES   REMARKS
MANITOWISH WTR CLOUDY    28  28 100 W10G17    29.96R WCI  19
ARBOR VITAE    CLOUDY    32  30  92 W9        29.96S WCI  24
WOODRUFF       CLOUDY    32  30  92 W9        29.96S WCI  24
RHINELANDER    CLOUDY    32  29  88 W18       29.97R WCI  20
EAGLE RIVER    CLOUDY    30  29  96 W10       29.95R WCI  21
LAND O LAKES   CLOUDY    31  28  88 W7G17     29.96R WCI  24
PHILLIPS       CLOUDY    28  28  96 W7        30.00R WCI  21
TOMAHAWK       CLOUDY    31  28  89 W12       29.99R WCI  22
MEDFORD        CLOUDY    30  28  92 W10       30.01S WCI  21
MERRILL        CLOUDY    32  31  94 W12       30.01R WCI  23
$$

WIZ029-030-035-036-043>047-231800-
CENTRAL WISCONSIN

CITY           SKY/WX    TMP DP  RH WIND       PRES   REMARKS
WAUSAU         CLOUDY    33  29  85 W17       30.01R WCI  22
MOSINEE        CLOUDY    32  32 100 W15G21    30.04R WCI  22
MARSHFIELD     CLOUDY    32  29  88 W15G21    30.04R WCI  22
STEVENS POINT  CLOUDY    32  31  97 W14       30.05R WCI  22
WAUPACA        CLOUDY    38  33  83 SW12G18   30.06R WCI  30
WAUTOMA        CLOUDY    36  31  82 W16       30.09R WCI  26
WISC RAPIDS    CLOUDY    34  29  82 W12G24    30.08R WCI  25
CAMP DOUGLAS   PTSUNNY   37  32  81 W18       30.10R WCI  27
$$

WIZ011>013-019>022-031-037>040-048>050-231800-
NORTHEAST WISCONSIN

CITY           SKY/WX    TMP DP  RH WIND       PRES   REMARKS
ANTIGO         CLOUDY    32  30  93 W10       29.98S WCI  24
SHAWANO        CLOUDY    38  35  87 W12G18    30.03R WCI  31
OCONTO         CLOUDY    36  34  92 W12       30.01S WCI  28
STURGEON BAY   CLOUDY    38  35  89 W16G22    30.01S WCI  29
GREEN BAY      CLOUDY    38  35  89 W14       30.05R WCI  30
MANITOWOC      CLOUDY    39  35  86 W15G24    30.06R WCI  31
APPLETON       PTSUNNY   36  36 100 W15G24    30.03  WCI  26
CLINTONVILLE   CLOUDY    36  32  85 W8G20     30.03S WCI  30
OSHKOSH        CLOUDY    37  32  82 W9G20     30.07R WCI  30
$$

WIZ032>034-041-042-053>061-231800-
SOUTHWEST WISCONSIN

CITY           SKY/WX    TMP DP  RH WIND       PRES   REMARKS
LA CROSSE      CLOUDY    34  27  75 W14       30.16R WCI  25
SPARTA         CLOUDY    32  29  90 W10       30.12R WCI  24
VIROQUA        CLOUDY    32  30  94 W12       30.12R WCI  23
BOSCOBEL       CLOUDY    37  29  72 W9G21     30.17  WCI  30
PRAIRIE DU CHI PTSUNNY   34  26  72 W12G21    30.18R WCI  26
PLATTEVILLE    CLOUDY    35  33  95 W14       30.17R WCI  25
$$

WIZ056-057-062-063-064-067-068-231800-
SOUTH CENTRAL WISCONSIN

CITY           SKY/WX    TMP DP  RH WIND       PRES   REMARKS
REEDSBURG      CLOUDY    34  33  94 W12       30.12R WCI  26
BARABOO/DELLS  CLOUDY    34  32  93 W8        30.11R WCI  27
LONE ROCK      CLOUDY    36  32  85 W9        30.14R WCI  29
MINERAL POINT  CLOUDY    34 N/A N/A W18       30.13R WCI  23
MADISON        CLOUDY    35  33  92 W9        30.14  WCI  28
MIDDLETON      CLOUDY    36  35  96 W12G18    30.13R WCI  28
WATERTOWN      CLOUDY    36  36 100 W8        30.11R WCI  29
MONROE         CLOUDY    34  32  93 W21       30.14R WCI  22
JANESVILLE     CLOUDY    37  37 100 W15       30.13R WCI  28
$$

WIZ051-052-058>065-066-070>072-231800-
SOUTHEAST WISCONSIN

CITY           SKY/WX    TMP DP  RH WIND       PRES   REMARKS
MILWAUKEE      CLOUDY    41  37  86 W16G25    30.10R
WAUKESHA       CLOUDY    36  36 100 W18       30.11R WCI  25
MILWAUKEE/TIMM CLOUDY    37  34  87 W20G25    30.10R WCI  27
RACINE         CLOUDY    40  38  93 W18G29    30.12R WCI  31
BURLINGTON     CLOUDY    37  35  90 W14G23    30.12R WCI  29
KENOSHA        CLOUDY    40  37  89 W16G28    30.12R WCI  31
FOND DU LAC    MIX PCPN  37  33  85 W7        30.10R WCI  32
SHEBOYGAN      CLOUDY    37  35  92 W17G23    30.07R WCI  27
WEST BEND      CLOUDY    37  36  93 W16       30.07R WCI  28
JUNEAU         CLOUDY    34  34  98 W9        30.11R WCI  27
$$

LSZ147-162-231800-
LAKE SUPERIOR

STATION/POSITION TIME  TEMP    WIND        PRES    WAVE
                       AIR SEA DIR/SP/G            HT/PER
                 (UTC) (F)     (DEG/KT/KT) (MB)    (FT/S)
DEVILS ISLAND    1600   28     240/ 10/ 13 1017.2R
SAXON HARBOR     1630   30     240/  8/ 13 1015.9S
$$

LMZ867-665-643>646-231800-
LAKE MICHIGAN

STATION/POSITION TIME  TEMP    WIND        PRES    WAVE
                       AIR SEA DIR/SP/G            HT/PER
                 (UTC) (F)     (DEG/KT/KT) (MB)    (FT/S)
NORTHPORT PIER   1640   37                 1015.6S
KEWAUNEE LAKESHO 1630   37     240/  6/ 11 1016.1R
SHEBOYGAN LAKESH 1500   35     200/  7/  8 1017.9R
PORT WASHINGTON  1630   40     270/  9/ 17 1019.3S
KENOSHA   LAKESH 1600   42     260/ 13/ 20 1019.0
$$

TC  - TEMPERATURE IN CELSIUS
VSB - VISIBILITY IN STATUTE MILES
WCI - WIND CHILL INDEX
HX  - HEAT INDEX




USA.gov is the U.S. government's official web portal to all federal, state and local government web resources and services.